Wind_Speed
29 29 29 30 30 31 31 32 32 33 33 34 34 34 34 34 35 36 36 36 37 38 38 38 39 39 40 40 41 41 41 42 42 43 43 44 45 45 46 47 47 47 48
31 31 31 31 32 32 33 33 34 34 35 35 35 35 36 37 37 37 37 37 38 38 38 39 39 40 40 41 42 42 43 43 43 44 44 44 45 45 46 47 47 48 48
32 32 32 33 33 34 34 35 35 36 36 36 37 37 38 38 38 39 39 39 38 39 39 40 40 41 42 42 42 43 43 44 44 45 45 46 46 46 47 48 48 48 49
33 33 34 34 35 35 36 36 36 37 37 38 38 39 39 40 40 40 40 40 39 39 40 41 41 42 42 43 43 44 44 44 45 45 46 46 47 48 48 49 49 49 50
34 34 35 36 36 36 37 37 37 38 39 39 39 40 40 41 41 41 41 41 41 41 41 42 42 43 43 44 44 45 45 46 46 47 47 48 49 49 50 51 51 52 52
35 35 36 36 37 37 38 38 39 39 40 40 40 41 42 42 43 43 43 43 43 43 43 43 43 44 44 45 46 46 47 48 48 49 49 50 50 51 52 53 53 54 54
36 36 36 37 37 38 39 39 40 40 41 41 41 42 43 43 44 44 44 44 44 44 44 45 45 45 46 46 47 48 49 49 50 50 51 51 52 53 54 54 55 55 56
36 36 37 37 38 39 40 40 41 41 42 42 43 43 43 43 44 44 45 45 45 45 46 46 46 47 47 47 47 48 49 50 50 51 52 52 53 54 55 56 56 57 57
36 37 37 38 39 40 40 41 41 42 43 44 45 45 44 44 44 44 45 45 45 46 46 47 47 47 47 48 48 49 50 50 51 52 53 53 54 55 56 57 57 58 58
37 37 38 39 40 40 41 41 43 43 44 45 46 46 46 46 45 44 44 45 45 45 46 47 48 48 49 50 50 51 51 52 53 53 54 55 56 57 58 58 59 59 60
37 38 39 39 40 40 41 42 43 44 45 46 47 47 47 47 47 46 44 44 45 46 46 47 48 49 50 50 51 52 53 54 55 56 57 58 59 59 60 61 61 62 62
37 39 39 39 40 41 42 43 45 46 47 48 48 48 48 47 47 47 46 45 45 45 47 47 48 49 50 51 52 54 55 57 58 59 61 61 62 63 63 64 65 65 66
38 39 39 40 41 42 44 45 46 47 48 48 48 48 48 48 48 48 47 47 46 46 46 47 48 50 51 53 55 57 58 60 62 63 64 66 67 68 68 69 70 70 70
38 39 40 41 42 43 44 46 47 48 48 48 48 48 48 48 48 49 49 49 48 47 47 49 51 53 55 57 59 61 62 64 66 67 68 70 71 72 73 74 75 76 76
38 40 41 42 43 44 45 47 48 48 48 48 48 48 49 49 49 50 50 50 50 50 50 52 55 57 59 61 63 65 67 69 71 72 74 75 76 77 78 79 80 81 81
39 40 41 43 44 45 47 48 48 48 49 49 49 49 49 50 50 50 51 52 54 55 55 56 59 62 64 66 69 71 72 74 76 77 78 80 80 81 81 82 82 82 83
40 40 42 44 45 46 47 48 48 49 49 49 49 50 50 51 51 52 54 55 57 59 60 61 64 67 69 71 73 75 76 77 78 79 80 80 80 80 80 80 80 81 81
40 41 43 45 46 47 48 48 49 49 49 50 50 51 51 52 53 55 57 59 61 63 65 66 68 71 73 74 76 77 78 79 79 78 77 76 75 75 75 75 74 74 74
41 43 45 46 47 48 48 49 49 49 50 51 51 52 53 55 56 58 60 63 65 67 70 72 72 73 74 76 77 77 77 76 74 73 72 71 70 69 68 67 67 67 67
42 44 45 47 47 48 48 49 50 51 51 52 53 54 56 58 59 62 64 66 69 70 73 74 75 74 75 76 77 76 73 70 68 68 67 65 64 63 63 62 62 61 60
43 44 46 46 47 48 49 50 51 52 52 54 55 57 59 61 63 65 68 69 71 73 75 76 76 75 75 75 74 71 68 66 64 64 62 60 59 58 58 56 54 52 50
44 45 45 46 47 49 50 51 52 53 55 56 58 60 62 64 66 68 69 71 74 76 77 77 76 75 74 71 69 67 66 64 61 59 58 55 55 52 50 48 45 42 40
43 44 45 47 48 50 52 53 54 56 57 59 61 63 65 67 68 70 71 73 75 77 77 77 76 73 70 67 67 65 63 60 57 54 53 50 47 45 42 39 37 35 34
43 45 46 48 49 51 53 54 56 58 60 62 64 66 67 69 70 72 73 74 75 75 75 75 73 69 67 65 64 62 59 56 52 50 48 43 40 37 34 33 32 30 28
44 46 48 49 51 53 55 57 59 61 63 65 67 68 69 71 72 74 75 75 74 73 73 71 69 66 64 62 60 58 54 51 46 42 40 38 34 31 30 29 28 25 23
45 47 49 51 52 55 57 59 62 64 66 67 68 69 71 73 73 74 75 75 74 72 70 67 64 62 59 56 54 51 48 44 40 36 34 33 31 29 26 25 24 22 21
Wind_Direction
295 294 294 293 292 292 292 291 291 291 291 291 292 292 292 292 292 292 291 291 290 289 287 286 286 285 284 283 281 280 279 278 277 276 275 273 272 271 270 269 268 268 267
294 294 294 293 292 292 292 292 292 293 292 292 292 292 292 293 293 292 292 291 291 290 288 287 286 285 284 283 282 280 279 278 277 276 275 274 273 272 271 270 269 268 267
293 293 293 292 292 292 292 293 293 293 293 293 293 293 293 294 293 293 292 292 291 290 289 287 286 285 283 282 282 281 279 278 277 276 275 274 273 272 272 271 270 269 268
292 292 292 292 292 292 293 293 294 294 294 294 294 295 295 295 295 294 294 293 291 290 289 288 287 285 283 282 282 280 280 279 278 276 275 274 273 272 272 271 270 269 268
291 291 291 291 291 292 293 294 294 295 295 295 295 296 296 296 296 295 294 293 292 291 290 289 288 286 285 283 282 281 280 279 278 277 276 274 273 272 272 271 270 269 269
290 291 291 292 292 293 294 294 294 295 295 295 296 296 297 297 296 295 295 294 293 292 291 290 289 287 286 285 283 282 281 280 279 278 277 276 275 274 273 272 271 270 269
289 290 291 292 293 294 294 294 295 295 296 296 297 297 298 298 297 296 296 295 294 293 292 291 290 289 288 286 285 284 282 281 280 279 278 277 276 275 274 273 272 271 270
289 290 291 291 293 294 294 294 295 295 296 297 298 298 298 298 298 298 297 296 295 295 294 293 292 291 289 288 287 285 284 283 282 281 279 278 277 276 275 274 273 272 271
289 290 291 291 293 294 294 294 295 296 297 299 299 299 299 298 298 298 297 296 296 296 296 295 294 293 292 290 289 288 287 285 284 283 282 281 280 278 277 276 274 273 272
288 289 290 291 293 294 294 295 297 298 299 300 300 300 300 300 299 298 297 297 296 296 295 295 294 294 293 292 291 290 289 288 287 286 284 283 282 281 279 278 276 275 273
288 290 291 292 293 294 295 297 298 299 300 301 301 301 301 301 300 299 298 297 297 297 296 295 294 294 293 293 292 291 291 290 289 288 286 285 284 283 281 280 278 277 275
289 290 291 292 293 295 296 298 299 300 301 302 302 302 302 301 301 300 299 298 298 297 297 296 295 294 294 293 292 292 291 290 290 289 288 286 285 284 282 281 279 278 276
289 290 291 292 294 296 297 298 299 301 302 302 302 302 302 302 301 301 300 300 299 299 298 298 296 295 295 294 293 292 292 290 289 288 287 286 285 284 282 281 279 278 276
289 290 291 293 295 296 297 299 300 302 303 303 303 303 303 303 302 302 301 301 300 299 299 299 298 297 296 295 294 293 292 291 290 289 287 286 285 283 282 280 279 277 276
288 290 292 294 296 297 298 299 301 303 303 303 303 303 303 303 303 303 302 302 301 300 300 300 299 299 298 297 296 295 294 292 291 290 288 287 285 284 282 280 279 277 275
289 291 293 295 296 297 299 300 302 302 303 303 303 304 304 303 303 303 303 302 302 302 301 301 301 300 299 299 297 296 295 294 293 291 290 288 287 285 283 281 280 278 276
290 292 293 295 296 298 299 301 302 302 303 303 304 304 304 303 303 303 303 303 303 303 303 303 302 302 301 300 299 298 297 296 295 294 292 290 288 287 285 283 281 279 277
291 292 293 295 296 298 299 300 301 302 303 303 304 303 303 304 304 304 304 305 305 304 304 304 304 303 302 301 300 299 299 298 296 295 293 292 290 289 288 286 284 282 280
292 293 294 295 297 298 299 301 302 303 303 304 304 304 304 304 304 305 305 306 306 306 306 306 306 305 304 303 302 301 300 299 298 296 295 294 292 291 290 288 287 285 283
293 294 295 296 298 299 300 301 302 303 303 304 304 304 304 304 305 305 306 306 306 306 307 307 306 306 305 304 303 302 300 300 299 298 297 296 294 293 292 290 289 287 285
294 295 296 297 298 299 300 301 302 303 303 304 304 304 304 305 305 306 307 307 307 308 308 307 307 306 306 305 303 302 302 301 300 299 298 297 296 295 294 293 291 289 287
295 296 297 298 299 300 301 301 302 303 303 304 304 304 305 305 306 307 307 308 308 309 308 308 307 307 306 305 304 304 303 303 301 299 299 298 298 297 296 295 293 291 288
296 297 298 299 300 301 301 302 302 303 304 304 304 305 305 306 306 307 308 308 309 309 308 308 308 308 307 305 305 305 304 304 303 302 300 301 299 298 297 295 294 292 289
297 298 299 300 301 301 302 302 303 304 304 305 305 306 306 307 307 307 308 309 309 309 308 308 308 308 307 306 306 306 306 305 305 304 303 303 301 300 298 297 295 293 290
299 299 300 301 301 302 303 303 304 305 305 306 306 306 307 307 308 308 308 309 310 309 308 308 308 307 307 307 307 307 307 307 307 305 304 304 303 301 300 298 296 293 290
300 300 301 302 302 303 304 304 305 305 306 306 307 307 308 308 308 309 309 310 309 309 308 308 307 307 307 307 307 307 307 308 307 307 305 305 305 303 301 298 295 293 290
Height
5829 5828 5826 5824 5822 5821 5819 5817 5816 5814 5812 5810 5808 5806 5804 5802 5799 5797 5795 5793 5790 5788 5786 5783 5781 5779 5778 5776 5775 5773 5772 5770 5769 5768 5767 5767 5766 5765 5765 5765 5764 5765 5765
5823 5822 5820 5818 5816 5815 5813 5811 5809 5807 5805 5803 5801 5799 5796 5794 5792 5790 5788 5785 5782 5779 5777 5775 5773 5771 5769 5767 5765 5763 5762 5760 5759 5758 5757 5756 5755 5754 5754 5754 5753 5753 5753
5817 5816 5814 5812 5810 5808 5806 5804 5802 5800 5798 5796 5793 5791 5788 5786 5784 5781 5779 5777 5774 5771 5768 5766 5764 5761 5759 5757 5755 5753 5751 5750 5748 5747 5746 5745 5744 5743 5742 5742 5742 5742 5741
5811 5809 5807 5805 5803 5801 5799 5797 5795 5793 5790 5788 5786 5783 5780 5778 5775 5772 5770 5767 5765 5762 5759 5756 5754 5751 5749 5747 5745 5742 5741 5739 5737 5736 5735 5733 5732 5732 5731 5730 5730 5729 5729
5804 5802 5800 5798 5796 5794 5792 5790 5787 5785 5783 5780 5777 5775 5772 5769 5766 5763 5760 5757 5755 5752 5749 5747 5744 5741 5738 5736 5733 5731 5729 5728 5726 5724 5723 5721 5720 5719 5718 5718 5717 5717 5716
5797 5795 5793 5791 5789 5787 5784 5782 5779 5777 5774 5772 5769 5766 5763 5760 5757 5754 5750 5747 5744 5741 5738 5736 5733 5730 5727 5724 5722 5720 5717 5715 5714 5712 5710 5709 5707 5706 5705 5704 5703 5703 5703
5790 5788 5786 5783 5781 5779 5776 5774 5771 5769 5766 5763 5761 5757 5754 5751 5747 5743 5740 5737 5734 5731 5727 5724 5721 5719 5716 5713 5710 5707 5705 5703 5701 5699 5697 5695 5694 5692 5691 5690 5689 5689 5688
5782 5780 5778 5776 5773 5771 5768 5765 5763 5760 5757 5754 5751 5748 5745 5742 5738 5733 5729 5726 5722 5719 5716 5713 5709 5706 5703 5700 5697 5695 5692 5690 5687 5685 5683 5681 5680 5678 5676 5675 5674 5673 5673
5775 5772 5770 5768 5765 5763 5760 5757 5754 5751 5748 5745 5741 5738 5735 5732 5729 5725 5719 5715 5712 5708 5704 5701 5697 5694 5691 5687 5684 5682 5679 5676 5673 5671 5668 5666 5664 5662 5661 5659 5658 5657 5656
5767 5764 5762 5760 5757 5754 5751 5748 5745 5742 5739 5735 5731 5727 5724 5720 5717 5715 5710 5705 5701 5697 5693 5689 5685 5681 5678 5675 5671 5668 5665 5662 5659 5656 5653 5651 5648 5646 5644 5642 5641 5640 5639
5759 5756 5754 5751 5748 5745 5742 5739 5736 5732 5729 5725 5721 5717 5713 5709 5705 5702 5700 5696 5691 5686 5682 5678 5674 5670 5666 5662 5658 5654 5651 5647 5644 5640 5637 5634 5632 5629 5627 5624 5623 5621 5620
5751 5748 5745 5742 5740 5737 5734 5730 5726 5723 5719 5715 5710 5706 5702 5698 5694 5690 5687 5684 5680 5676 5671 5666 5662 5657 5653 5649 5645 5641 5636 5632 5628 5624 5620 5617 5614 5611 5608 5605 5603 5602 5600
5742 5739 5737 5734 5731 5728 5724 5721 5717 5713 5709 5704 5700 5695 5691 5686 5682 5678 5675 5671 5668 5665 5660 5655 5649 5645 5640 5636 5631 5626 5621 5616 5612 5607 5602 5598 5595 5591 5588 5585 5583 5580 5579
5734 5731 5728 5725 5722 5719 5715 5711 5707 5703 5698 5694 5689 5684 5680 5675 5670 5666 5662 5658 5655 5653 5648 5643 5637 5631 5626 5621 5615 5610 5604 5598 5593 5588 5583 5578 5574 5570 5566 5563 5560 5557 5555
5725 5722 5719 5716 5713 5709 5705 5701 5697 5693 5688 5683 5678 5673 5669 5664 5659 5654 5649 5645 5641 5638 5636 5630 5623 5616 5610 5604 5597 5591 5585 5578 5572 5566 5560 5555 5550 5545 5541 5537 5534 5531 5529
5716 5714 5710 5707 5703 5700 5695 5691 5687 5682 5677 5672 5667 5662 5657 5652 5647 5642 5637 5632 5627 5622 5620 5615 5607 5600 5592 5585 5578 5570 5563 5556 5549 5542 5535 5529 5523 5517 5512 5508 5504 5501 5499
5707 5704 5701 5698 5694 5690 5685 5681 5676 5671 5666 5661 5656 5651 5646 5640 5635 5629 5624 5618 5612 5606 5602 5599 5590 5582 5573 5565 5557 5548 5540 5532 5524 5516 5508 5501 5494 5488 5483 5479 5474 5471 5469
5698 5695 5691 5688 5684 5679 5675 5670 5665 5660 5655 5650 5645 5639 5633 5628 5622 5616 5610 5604 5597 5589 5583 5579 5573 5563 5553 5543 5535 5526 5517 5508 5499 5491 5483 5475 5468 5462 5456 5451 5446 5443 5440
5689 5685 5681 5677 5673 5669 5664 5659 5654 5649 5644 5638 5633 5627 5621 5615 5609 5602 5595 5588 5580 5573 5564 5557 5552 5542 5532 5521 5512 5504 5495 5485 5475 5467 5459 5452 5445 5438 5433 5427 5422 5418 5415
5679 5675 5671 5667 5663 5658 5653 5648 5643 5638 5632 5627 5620 5614 5608 5601 5594 5587 5580 5572 5563 5555 5546 5537 5530 5522 5512 5500 5489 5480 5473 5465 5455 5445 5438 5431 5424 5418 5411 5406 5401 5397 5393
5669 5665 5661 5656 5652 5647 5642 5636 5631 5626 5620 5614 5608 5601 5594 5587 5579 5571 5563 5554 5545 5536 5527 5517 5509 5500 5491 5479 5469 5459 5451 5445 5437 5426 5419 5413 5405 5399 5393 5387 5382 5378 5375
5658 5654 5650 5645 5641 5636 5630 5625 5619 5614 5608 5601 5595 5587 5580 5572 5563 5555 5546 5537 5527 5516 5506 5497 5488 5479 5470 5459 5449 5440 5431 5424 5420 5411 5401 5397 5389 5383 5377 5372 5367 5363 5360
5648 5644 5639 5634 5630 5624 5618 5612 5607 5601 5595 5588 5580 5573 5565 5556 5547 5538 5529 5520 5509 5497 5486 5476 5468 5458 5449 5440 5430 5423 5414 5406 5400 5393 5385 5381 5374 5368 5364 5359 5355 5352 5350
5638 5633 5628 5623 5618 5612 5606 5600 5594 5587 5581 5573 5565 5557 5548 5539 5529 5520 5511 5503 5492 5481 5469 5458 5448 5440 5431 5422 5412 5404 5396 5390 5385 5378 5369 5365 5362 5357 5353 5349 5345 5343 5341
5627 5622 5617 5612 5606 5600 5593 5586 5579 5573 5566 5558 5550 5540 5530 5522 5513 5502 5493 5484 5475 5464 5452 5441 5431 5422 5414 5405 5396 5388 5382 5376 5371 5366 5358 5354 5351 5347 5345 5341 5337 5335 5333
5616 5611 5606 5600 5594 5587 5580 5572 5565 5558 5551 5543 5534 5524 5513 5503 5494 5483 5473 5464 5455 5446 5436 5426 5417 5408 5399 5391 5383 5375 5369 5363 5359 5355 5350 5345 5342 5338 5337 5334 5330 5329 5327